Weather observations for the past three days for
Fort Worth Spinks Airport
| Date | Time (cdt) | Wind (kph) | Vis. (km) | Weather | Sky Cond. | Temperature (ºC) | Relative Humidity | Wind Chill (°C) | Heat Index (°C) | Pressure | Precipitation (cm) | ||||||
|---|---|---|---|---|---|---|---|---|---|---|---|---|---|---|---|---|---|
| Air | Dwpt | 6 hour | altimeter (cm) | sea level (mb) | 1 hr | 3 hr | 6 hr | ||||||||||
| Max. | Min. | ||||||||||||||||
| 06 | 04:55 | Calm | 16.09 | Fair | CLR | 25.2 | 22.3 | 84% | 26 | 75.97 | 0.0 | ||||||
| 06 | 04:35 | Calm | 16.09 | Fair | CLR | 25.5 | 22.3 | 83% | 27 | 75.97 | 0.0 | ||||||
| 06 | 03:55 | Calm | 16.09 | Fair | CLR | 25.3 | 22 | 82% | 26 | 75.95 | 0.0 | ||||||
| 06 | 03:35 | S 6 | 16.09 | Fair | CLR | 25.3 | 22.2 | 83% | 26 | 75.95 | 0.0 | ||||||
| 06 | 03:15 | S 6 | 16.09 | A Few Clouds | FEW210 | 25.5 | 22.1 | 82% | 27 | 75.95 | 0.0 | ||||||
| 06 | 02:55 | S 7 | 16.09 | A Few Clouds | FEW200 | 26.6 | 22.3 | 77% | 29 | 75.95 | 0.0 | ||||||
| 06 | 02:35 | S 9 | 16.09 | Fair | CLR | 26.7 | 22.4 | 77% | 29 | 75.95 | 0.0 | ||||||
| 06 | 02:15 | S 11 | 16.09 | Fair | CLR | 27.2 | 22.4 | 75% | 30 | 75.97 | 0.0 | ||||||
| 06 | 01:55 | S 13 | 12.87 | Fair | CLR | 27.3 | 22.5 | 75% | 30 | 76 | 0.0 | ||||||
| 06 | 01:35 | S 9 | 16.09 | A Few Clouds | FEW170 | 27.6 | 22.4 | 73% | 30 | 76 | 0.0 | ||||||
| 06 | 01:15 | S 13 | 16.09 | Partly Cloudy | SCT180 | 27.9 | 22.4 | 72% | 31 | 76 | 0.0 | ||||||
| 06 | 00:55 | S 11 | 16.09 | Overcast | OVC170 | 28.1 | 22.5 | 35.7 | 27.3 | 72% | 31 | 76 | 0.0 | ||||
| 06 | 00:35 | S 9 | 16.09 | Overcast | OVC170 | 27.5 | 22.4 | 74% | 30 | 76 | 0.0 | ||||||
| 06 | 00:15 | S 9 | 16.09 | Mostly Cloudy | BKN170 | 27.3 | 22.2 | 74% | 30 | 76 | 0.0 | ||||||
| 05 | 23:55 | S 9 | 16.09 | Partly Cloudy | SCT170 | 27.8 | 22.4 | 72% | 31 | 76 | 0.0 | ||||||
| 05 | 23:35 | S 9 | 16.09 | Fair | CLR | 28.2 | 22.4 | 71% | 31 | 76 | 0.0 | ||||||
| 05 | 23:15 | S 7 | 16.09 | Fair | CLR | 28.3 | 22.4 | 70% | 31 | 75.97 | 0.0 | ||||||
| 05 | 22:55 | S 9 | 16.09 | Fair | CLR | 29.1 | 22.7 | 68% | 33 | 75.97 | 0.0 | ||||||
| 05 | 22:35 | S 9 | 16.09 | Fair | CLR | 29.3 | 22.7 | 68% | 33 | 75.97 | 0.0 | ||||||
| 05 | 22:15 | SE 13 | 16.09 | Fair | CLR | 29.6 | 22.7 | 66% | 33 | 76 | 0.0 | ||||||
| 05 | 21:55 | SE 17 | 16.09 | Fair | CLR | 30.1 | 22.5 | 64% | 34 | 75.97 | 0.0 | ||||||
| 05 | 21:35 | SE 15 | 16.09 | Fair | CLR | 30.2 | 22.4 | 63% | 34 | 75.95 | 0.0 | ||||||
| 05 | 21:15 | SE 19 | 16.09 | Fair | CLR | 30.5 | 22.2 | 61% | 34 | 75.92 | 0.0 | ||||||
| 05 | 20:55 | SE 15 | 16.09 | Fair | CLR | 31.2 | 21.9 | 58% | 35 | 75.9 | 0.0 | ||||||
| 05 | 20:35 | SE 13 | 16.09 | Fair | CLR | 31.5 | 21.2 | 54% | 34 | 75.9 | 0.0 | ||||||
| 05 | 20:15 | SE 24 G 33 | 16.09 | Partly Cloudy | SCT095 | 32.7 | 20.6 | 49% | 35 | 75.87 | 0.0 | ||||||
| 05 | 19:55 | SE 9 | 16.09 | A Few Clouds | FEW095 | 33.8 | 19.3 | 42% | 36 | 75.84 | 0.0 | ||||||
| 05 | 18:50 | SE 9 | 16.09 | Partly Cloudy | SCT075 | 36 | 18 | 34% | 37 | 75.82 | 0.0 | ||||||
| 05 | 17:50 | SE 7 | 16.09 | Partly Cloudy | SCT075 | 37 | 18 | 33% | 39 | 75.79 | 0.0 | ||||||
| 05 | 16:50 | SE 13 | 16.09 | Partly Cloudy | SCT075 | 38 | 18 | 31% | 40 | 75.82 | 0.0 | ||||||
| 05 | 15:55 | E 11 | 16.09 | Mostly Cloudy | BKN080 | 37 | 19 | 35% | 39 | 75.87 | 0.0 | ||||||
| 05 | 14:55 | E 17 | 16.09 | Mostly Cloudy | BKN075 | 38 | 19 | 33% | 40 | 75.92 | 0.0 | ||||||
| 05 | 12:55 | SE 7 G 26 | 16.09 | Partly Cloudy | SCT060 | 35 | 29 | 71% | 51 | 76.07 | 0.0 | ||||||
| 05 | 11:50 | S 9 | 16.09 | Fair | CLR | 34 | 20 | 44% | 36 | 76.12 | 0.0 | ||||||
| 05 | 10:50 | S 9 | 16.09 | Fair | CLR | 33 | 21 | 49% | 36 | 76.12 | 0.0 | ||||||
| 05 | 09:50 | SW 7 | 16.09 | Fair | CLR | 31 | 21 | 55% | 34 | 76.12 | 0.0 | ||||||
| 05 | 08:50 | Calm | 16.09 | Fair | CLR | 28 | 23 | 74% | 31 | 76.12 | 0.0 | ||||||
| 05 | 07:47 | Calm | 16.09 | Fair | CLR | 23 | 22 | 94% | 76.05 | 0.0 | |||||||
| 05 | 06:48 | Calm | 16.09 | Fair | CLR | 23 | 22 | 94% | 76.07 | 0.0 | |||||||
| 05 | 06:35 | Calm | 16.09 | Fair | CLR | 23.5 | 22.1 | 92% | 76.05 | 0.0 | |||||||
| 05 | 06:15 | Calm | 16.09 | Fair | CLR | 23.9 | 22.2 | 90% | 23 | 76.05 | 0.0 | ||||||
| 05 | 05:55 | Calm | 16.09 | Fair | CLR | 24 | 22.1 | 89% | 24 | 76.05 | 0.0 | ||||||
| 05 | 05:35 | SE 7 | 14.48 | Fair | CLR | 23.6 | 21.9 | 90% | 76.05 | 0.0 | |||||||
| 05 | 05:15 | S 6 | 16.09 | Fair | CLR | 23.9 | 22 | 89% | 23 | 76.05 | 0.0 | ||||||
| 05 | 04:55 | S 9 | 16.09 | Fair | CLR | 24.7 | 22 | 85% | 25 | 76.05 | 0.0 | ||||||
| 05 | 04:35 | S 7 | 16.09 | Fair | CLR | 25.5 | 22.2 | 82% | 27 | 76.02 | 0.0 | ||||||
| 05 | 04:15 | SW 7 | 16.09 | Fair | CLR | 25.6 | 22.1 | 81% | 27 | 76.05 | 0.0 | ||||||
| 05 | 03:55 | S 7 | 16.09 | Fair | CLR | 25.3 | 22 | 82% | 26 | 76.05 | 0.0 | ||||||
| 05 | 03:35 | S 7 | 16.09 | Fair | CLR | 25.6 | 22.1 | 81% | 27 | 76.02 | 0.0 | ||||||
| 05 | 03:15 | S 9 | 16.09 | Fair | CLR | 26.3 | 22.2 | 78% | 28 | 76.02 | 0.0 | ||||||
| 05 | 02:55 | SW 9 | 16.09 | Fair | CLR | 27 | 22.3 | 76% | 29 | 76.02 | 0.0 | ||||||
| 05 | 02:35 | S 11 | 16.09 | Fair | CLR | 27 | 22.2 | 75% | 29 | 76.02 | 0.0 | ||||||
| 05 | 02:15 | S 11 | 16.09 | Fair | CLR | 27 | 22.1 | 75% | 29 | 76.02 | 0.0 | ||||||
| 05 | 01:55 | S 9 | 16.09 | Fair | CLR | 26.9 | 21.9 | 74% | 29 | 76.05 | 0.0 | ||||||
| 05 | 01:35 | S 11 | 16.09 | Fair | CLR | 27.1 | 21.9 | 73% | 29 | 76.05 | 0.0 | ||||||
| 05 | 01:15 | S 9 | 16.09 | Fair | CLR | 27.6 | 21.9 | 71% | 30 | 76.05 | 0.0 | ||||||
| 05 | 00:55 | S 11 | 16.09 | Fair | CLR | 27.6 | 21.8 | 35.3 | 27.6 | 71% | 30 | 76.05 | 0.0 | ||||
| 05 | 00:35 | S 11 | 16.09 | Fair | CLR | 28.1 | 21.6 | 68% | 31 | 76.05 | 0.0 | ||||||
| 05 | 00:15 | S 11 | 16.09 | Fair | CLR | 28 | 21.4 | 67% | 30 | 76.02 | 0.0 | ||||||
| 04 | 23:55 | S 15 | 16.09 | Fair | CLR | 28.8 | 21.3 | 64% | 31 | 76.02 | 0.0 | ||||||
| 04 | 23:35 | S 13 | 16.09 | Fair | CLR | 29.1 | 21.1 | 62% | 32 | 76.02 | 0.0 | ||||||
| 04 | 23:15 | S 13 | 16.09 | Fair | CLR | 29.6 | 20.8 | 59% | 32 | 76.02 | 0.0 | ||||||
| 04 | 22:55 | S 13 | 16.09 | Fair | CLR | 30 | 20.4 | 56% | 32 | 76.02 | 0.0 | ||||||
| 04 | 22:35 | S 11 | 16.09 | Fair | CLR | 30.3 | 20.3 | 55% | 32 | 76.02 | 0.0 | ||||||
| 04 | 22:15 | S 13 | 16.09 | Fair | CLR | 30.8 | 20.3 | 54% | 33 | 76.02 | 0.0 | ||||||
| 04 | 21:55 | S 17 | 16.09 | Fair | CLR | 31.4 | 20.1 | 51% | 34 | 76 | 0.0 | ||||||
| 04 | 21:35 | S 15 | 16.09 | Fair | CLR | 31.4 | 19.7 | 50% | 33 | 76 | 0.0 | ||||||
| 04 | 21:15 | SE 11 | 16.09 | Fair | CLR | 31.4 | 19.7 | 50% | 33 | 75.95 | 0.0 | ||||||
| 04 | 20:55 | SE 13 | 16.09 | Fair | CLR | 32.1 | 19.7 | 48% | 34 | 75.92 | 0.0 | ||||||
| 04 | 20:35 | SE 13 | 16.09 | Fair | CLR | 32 | 19.6 | 48% | 34 | 75.9 | 0.0 | ||||||
| 04 | 20:15 | S 11 | 16.09 | Fair | CLR | 32.6 | 19.7 | 47% | 35 | 75.9 | 0.0 | ||||||
| 04 | 19:55 | SE 15 | 16.09 | Fair | CLR | 33.4 | 19.6 | 44% | 35 | 75.87 | 0.0 | ||||||
| 04 | 18:52 | SE 19 | 16.09 | A Few Clouds | FEW075 | 36 | 19 | 37% | 38 | 75.82 | 0.0 | ||||||
| 04 | 17:46 | S 15 | 16.09 | Partly Cloudy | SCT070 | 36 | 19 | 37% | 38 | 75.84 | 0.0 | ||||||
| 04 | 16:50 | SE 17 | 16.09 | Partly Cloudy | SCT070 | 37 | 19 | 35% | 39 | 75.87 | 0.0 | ||||||
| 04 | 15:47 | SE 19 | 16.09 | Partly Cloudy | SCT065 | 38 | 19 | 33% | 40 | 75.92 | 0.0 | ||||||
| 04 | 14:52 | S 19 | 16.09 | Partly Cloudy | SCT065 | 37 | 20 | 37% | 40 | 75.97 | 0.0 | ||||||
| 04 | 13:50 | SE 17 | 16.09 | Partly Cloudy | SCT055 | 36 | 21 | 42% | 40 | 76.02 | 0.0 | ||||||
| 04 | 12:53 | S 19 G 28 | 16.09 | A Few Clouds | FEW065 | 35 | 19 | 39% | 37 | 76.1 | 0.0 | ||||||
| 04 | 11:48 | SW 17 | 16.09 | Fair | CLR | 33 | 21 | 49% | 36 | 76.15 | 0.0 | ||||||
| 04 | 10:48 | S 19 | 16.09 | A Few Clouds | FEW025 | 32 | 22 | 55% | 36 | 76.12 | 0.0 | ||||||
| 04 | 09:47 | S 17 | 16.09 | Partly Cloudy | FEW016 SCT100 | 29 | 25 | 79% | 35 | 76.12 | 0.0 | ||||||
| 04 | 08:47 | SE 7 | 16.09 | Partly Cloudy | FEW008 SCT110 | 26 | 24 | 89% | 28 | 76.12 | 0.0 | ||||||
| 04 | 07:52 | SE 6 | 16.09 | Mostly Cloudy | BKN090 | 25 | 24 | 94% | 26 | 76.07 | 0.0 | ||||||
| 04 | 06:48 | SE 7 | 16.09 | Mostly Cloudy | BKN090 | 25 | 24 | 94% | 26 | 76.05 | 0.0 | ||||||
| 04 | 06:35 | SE 6 | 16.09 | Overcast | OVC090 | 25.4 | 24 | 92% | 27 | 76.02 | 0.0 | ||||||
| 04 | 06:15 | SE 6 | 16.09 | Overcast | OVC085 | 25.5 | 24 | 91% | 27 | 76.02 | 0.0 | ||||||
| 04 | 05:55 | S 6 | 16.09 | Overcast | OVC085 | 25.5 | 23.9 | 91% | 27 | 76.02 | 0.0 | ||||||
| 04 | 05:35 | S 7 | 16.09 | Overcast | OVC080 | 25.5 | 23.9 | 91% | 27 | 76 | 0.0 | ||||||
| 04 | 05:15 | SE 9 | 16.09 | Overcast | OVC085 | 25.7 | 23.9 | 90% | 27 | 76 | 0.0 | ||||||
| 04 | 04:55 | S 11 | 16.09 | Overcast | OVC090 | 25.6 | 23.9 | 90% | 27 | 76 | 0.0 | ||||||
| 04 | 04:35 | SE 13 | 16.09 | Mostly Cloudy | BKN090 | 25.4 | 23.9 | 91% | 27 | 76 | 0.0 | ||||||
| 04 | 04:15 | S 13 | 16.09 | Overcast | OVC085 | 25.5 | 23.9 | 91% | 27 | 76 | 0.0 | ||||||
| 04 | 03:55 | S 11 | 16.09 | Mostly Cloudy | BKN085 BKN120 | 25.4 | 23.9 | 91% | 27 | 76 | 0.0 | ||||||
| 04 | 03:35 | S 9 | 16.09 | Mostly Cloudy | SCT090 BKN120 | 25.3 | 23.8 | 91% | 26 | 76 | 0.0 | ||||||
| 04 | 03:15 | S 6 | 16.09 | Overcast | SCT090 OVC110 | 24.9 | 23.4 | 91% | 25 | 75.97 | 0.0 | ||||||
| 04 | 02:55 | S 9 | 16.09 | Overcast | OVC085 | 24.8 | 23.2 | 91% | 25 | 76 | 0.0 | ||||||
| 04 | 02:35 | S 7 | 16.09 | Overcast | BKN090 OVC130 | 24.7 | 23.3 | 92% | 25 | 76 | 0.0 | ||||||
| 04 | 02:15 | SE 7 | 16.09 | Mostly Cloudy | SCT090 BKN130 | 24.8 | 23.2 | 91% | 25 | 76.02 | 0.0 | ||||||
| 04 | 01:55 | S 9 | 16.09 | A Few Clouds | FEW085 | 24.5 | 23.1 | 92% | 24 | 76.02 | 0.0 | ||||||
| 04 | 01:35 | S 7 | 16.09 | Partly Cloudy | FEW080 SCT120 | 24.4 | 23 | 92% | 24 | 76.02 | 0.0 | ||||||
| 04 | 01:15 | Calm | 16.09 | A Few Clouds | FEW080 | 24.6 | 22.7 | 89% | 25 | 76.02 | 0.0 | ||||||
| 04 | 00:55 | S 7 | 14.48 | Light Rain | SCT090 | 24.6 | 22.7 | 31.3 | 24.5 | 89% | 25 | 76.02 | 0.0 | 0.03 | 0.03 | ||
| 04 | 00:35 | S 13 | 8.05 | Light Rain Fog/Mist | FEW047 BKN090 | 24.8 | 22.6 | 88% | 25 | 76.02 | 0.0 | 0.03 | |||||
| 04 | 00:15 | SE 15 | 16.09 | Overcast | FEW048 BKN080 OVC110 | 25.6 | 21.9 | 80% | 27 | 76.02 | 0.0 | ||||||
| 03 | 23:55 | SE 17 | 16.09 | Overcast | SCT070 OVC100 | 26 | 21.6 | 77% | 28 | 76.02 | 0.0 | ||||||
| 03 | 23:35 | SE 19 | 16.09 | Mostly Cloudy | BKN070 BKN095 | 26.2 | 21.5 | 75% | 28 | 76.02 | 0.0 | ||||||
| 03 | 23:15 | SE 15 | 16.09 | Overcast | BKN070 OVC110 | 26.4 | 21.3 | 74% | 28 | 76.02 | 0.0 | ||||||
| 03 | 22:55 | SE 17 | 16.09 | Overcast | BKN080 OVC100 | 26.6 | 21.4 | 73% | 28 | 76.02 | 0.0 | ||||||
| 03 | 22:35 | SE 17 | 16.09 | Mostly Cloudy | BKN080 | 26.8 | 21.3 | 72% | 29 | 76.02 | 0.0 | ||||||
| 03 | 22:15 | SE 17 | 16.09 | Mostly Cloudy | BKN080 | 27 | 21.5 | 72% | 29 | 76 | 0.0 | ||||||
| 03 | 21:55 | SE 11 | 16.09 | A Few Clouds | FEW080 | 26.9 | 21.6 | 73% | 29 | 76 | 0.0 | ||||||
| 03 | 21:35 | SE 13 | 16.09 | Fair | CLR | 27.2 | 21.5 | 71% | 29 | 75.97 | 0.0 | ||||||
| 03 | 21:15 | SE 15 | 16.09 | Fair | CLR | 27.7 | 21.6 | 69% | 30 | 75.95 | 0.0 | ||||||
| 03 | 20:55 | SE 15 | 16.09 | Fair | CLR | 28 | 22.3 | 71% | 31 | 75.92 | 0.0 | ||||||
| 03 | 20:35 | SE 13 | 16.09 | Fair | CLR | 28.2 | 21.9 | 69% | 31 | 75.9 | 0.0 | ||||||
| 03 | 20:15 | SE 17 | 16.09 | Fair | CLR | 28.6 | 21 | 64% | 31 | 75.87 | 0.0 | ||||||
| 03 | 19:55 | SE 28 | 16.09 | Fair | CLR | 29.5 | 20.3 | 58% | 32 | 75.87 | 0.0 | ||||||
| 03 | 18:50 | SE 24 | 16.09 | Fair | CLR | 31 | 22 | 59% | 35 | 75.84 | 0.0 | ||||||
| 03 | 17:50 | SE 20 | 16.09 | A Few Clouds | FEW040 | 33 | 23 | 56% | 38 | 75.82 | 0.0 | ||||||
| 03 | 16:50 | SE 20 | 16.09 | A Few Clouds | FEW034 | 33 | 23 | 56% | 38 | 75.84 | 0.0 | ||||||
| 03 | 15:50 | SE 20 | 16.09 | A Few Clouds | FEW034 | 32 | 24 | 63% | 38 | 75.87 | 0.0 | ||||||
| 03 | 14:50 | S 22 | 16.09 | Partly Cloudy | SCT026 | 31 | 24 | 66% | 37 | 75.92 | 0.0 | ||||||
| 03 | 13:50 | S 30 | 16.09 | Partly Cloudy | SCT026 | 31 | 24 | 66% | 37 | 76 | 0.0 | ||||||
| 03 | 12:46 | S 22 | 16.09 | Mostly Cloudy | FEW027 SCT090 BKN110 | 31 | 24 | 66% | 37 | 76.02 | 0.0 | ||||||
| 03 | 11:47 | S 20 | 16.09 | Overcast | BKN026 OVC100 | 30 | 24 | 70% | 35 | 76.05 | 0.0 | ||||||
| 03 | 10:52 | S 17 | 16.09 | Overcast | FEW023 SCT090 OVC120 | 30 | 24 | 70% | 35 | 76.05 | 0.0 | ||||||
| 03 | 09:47 | S 11 | 16.09 | Partly Cloudy | SCT018 | 28 | 24 | 79% | 32 | 76.05 | 0.0 | ||||||
| 03 | 08:52 | Calm | 16.09 | Fair | CLR | 25 | 23 | 89% | 26 | 76.05 | 0.0 | ||||||
| 03 | 07:50 | Calm | 16.09 | Fair | CLR | 24 | 22 | 89% | 24 | 76.02 | 0.0 | ||||||
| 03 | 06:49 | SE 7 | 16.09 | Fair | CLR | 24 | 22 | 89% | 24 | 76 | 0.0 | ||||||
| 03 | 06:35 | SE 7 | 16.09 | Fair | CLR | 23.6 | 21.9 | 90% | 76 | 0.0 | |||||||
| 03 | 06:15 | SE 7 | 16.09 | Fair | CLR | 23.3 | 21.7 | 91% | 76 | 0.0 | |||||||
| 03 | 05:55 | SE 7 | 16.09 | Fair | CLR | 23 | 21.4 | 91% | 76 | 0.0 | |||||||
| 03 | 05:35 | SE 7 | 16.09 | Fair | CLR | 23.5 | 21.6 | 89% | 76 | 0.0 | |||||||
| 03 | 05:15 | SE 6 | 16.09 | Fair | CLR | 23.1 | 21.4 | 90% | 76 | 0.0 | |||||||
| Date | Time (cdt) | Wind (kph) | Vis. (km) | Weather | Sky Cond. | Air | Dwpt | Max. | Min. | Relative Humidity | Wind Chill (°C) | Heat Index (°C) | altimeter (cm) | sea level (mb) | 1 hr | 3 hr | 6 hr |
| 6 hour | |||||||||||||||||
| Temperature (ºC) | Pressure | Precipitation (cm) | |||||||||||||||